Accueil
METAR-TAF:

METAR-TAF

Aéroports :

Hoorn-a, Pays-Bas

Plate-forme pétrolière

latitude: 52-55-05N, longitude: 4-09-01E, altitude: 41 m

Observation

Le bulletin a été fait il y a 22 minutes, à 03:25 UTC
Vent 5 kt de nord-est, variant entre nord et est/nord-est
Température 6°C
Humidité 61%
Pression 984 hPa
Visibilité 10 km ou plus

METAR: EHQE 110325Z AUTO 04005KT 010V070 9999 NSC 06/M01 Q0984 W///H///

Heure: 04:47 (03:47 UTC)


TAF: absent

Observations et prévisions météorologiques de plus de 4000 aéroports (messages METAR et TAF).

Les stations disponibles sont représentées par des disques jaunes et rouges sur la carte.

Passer la souris dessus pour voir le nom de la station.

Cliquer dessus pour voir les observations et prévisions météorologiques.

Pour changer de carte: cliquez sur les boutons verts avec une croix noire pour zoomer, sur le bouton vert avec un tiret pour effectuer un zoom arrière, ou sur les flèches vertes pour les cartes adjacentes.


METAR-TAF: